Dewpoint
58 58 58 58 58 58 58 58 58 58 59 59 59 59 60 60 60 60 60 60 61 61 61 61 62 62 62 62 62 62 59 51 47 48 41 36 45 53 56 61 63 67 61 46 39 33 28 32 38 46 47 48 49 44 45 47 49 48 46 45 42 43 45 46 47 48 49 49 51 53 55 54 52 55 57 58 57 57 57 57 58 58 58 59 58 59 58 55
57 58 58 57 57 57 57 58 58 58 58 59 59 59 59 59 59 60 60 60 60 61 61 61 62 62 62 62 62 62 59 53 48 43 35 40 58 57 62 63 65 64 55 37 31 29 33 39 46 46 47 50 47 49 47 48 50 50 47 43 40 45 47 50 48 51 48 49 53 54 56 54 54 55 55 54 55 55 53 54 55 55 56 58 58 58 52 52
57 57 57 57 57 57 57 57 58 58 58 58 59 59 59 59 59 59 60 60 60 61 61 62 62 62 62 62 62 60 56 52 48 44 38 55 58 61 63 63 63 63 40 30 33 31 32 44 45 48 51 50 45 48 47 45 50 46 45 43 45 47 49 49 51 50 52 52 52 55 55 54 54 55 56 54 54 54 51 50 52 52 52 55 56 55 51 50
56 56 56 56 56 56 56 57 57 58 58 58 59 59 59 59 59 59 59 60 60 61 61 62 62 61 62 62 61 59 57 51 45 41 42 56 62 64 62 64 65 62 48 41 38 34 33 44 47 48 52 48 48 51 47 45 48 45 46 45 46 49 48 51 51 51 53 53 53 54 54 53 54 54 55 54 52 51 51 52 50 51 53 54 55 51 50 49
56 55 55 55 55 56 56 56 57 57 58 58 58 59 59 59 59 59 59 60 60 61 61 62 62 62 62 62 61 59 52 37 33 41 39 60 64 65 64 65 66 54 46 38 37 37 40 46 48 49 53 47 50 50 46 50 48 50 45 47 48 49 48 50 51 51 53 53 53 53 51 51 54 54 54 53 49 49 51 53 53 54 55 55 53 51 50 49
55 55 55 55 55 56 56 56 56 57 57 58 58 58 59 59 58 59 59 60 60 61 62 62 62 62 62 61 59 54 42 32 36 37 58 60 64 65 65 66 65 51 39 37 36 36 45 46 48 50 51 49 47 46 44 49 53 44 46 47 48 48 48 50 51 52 52 52 51 51 52 53 52 53 54 53 51 51 55 55 54 55 56 56 54 53 50 49
55 55 55 55 55 55 56 56 56 57 57 58 58 58 58 58 58 58 58 59 60 61 61 62 62 62 63 58 54 54 40 36 43 40 60 64 62 64 67 67 64 40 38 37 36 40 42 47 51 48 53 50 48 48 48 53 50 47 45 47 48 49 48 49 50 51 50 50 50 51 52 51 52 50 53 51 52 54 55 55 55 56 56 55 54 53 50 50
55 55 55 55 55 55 56 56 56 56 57 57 57 58 58 58 58 58 58 59 59 61 62 61 62 63 61 55 52 50 46 43 44 42 61 64 60 62 65 57 47 39 37 35 38 40 43 44 45 49 47 44 45 49 47 48 49 44 46 46 47 48 49 49 50 50 49 49 49 50 50 51 53 52 52 51 52 54 54 55 55 55 55 54 54 54 54 52
55 54 55 55 55 55 55 55 56 56 57 57 57 57 58 57 58 58 58 58 59 61 62 61 62 63 59 51 42 37 36 43 42 40 45 57 50 55 49 42 47 39 39 40 37 42 44 45 44 49 44 46 48 46 48 48 43 47 43 46 46 47 49 49 50 49 48 48 49 49 50 52 52 52 52 53 53 54 54 53 53 53 53 54 54 54 54 53
55 55 55 55 55 55 55 55 56 56 57 57 57 57 57 57 57 57 58 59 59 61 62 62 63 60 55 50 41 33 33 39 41 40 45 48 46 47 43 41 41 38 37 38 37 42 41 43 42 44 44 44 47 44 46 48 41 42 41 44 45 48 48 48 49 48 47 47 49 50 51 52 53 52 47 53 54 55 53 52 54 53 52 53 54 55 55 54
56 55 55 55 55 55 55 56 56 56 57 57 57 56 56 56 57 57 57 59 60 62 62 62 63 59 55 51 37 30 35 39 38 39 42 45 44 44 40 41 40 40 38 38 38 38 39 42 43 43 42 41 47 44 46 41 43 42 42 44 45 46 47 48 50 47 47 48 51 51 52 52 52 51 48 52 55 55 53 53 54 52 51 52 54 55 55 55
56 56 56 56 56 56 56 56 56 56 56 56 56 56 56 56 56 57 57 59 60 61 62 63 61 57 52 45 37 32 39 33 37 38 40 42 40 40 40 40 40 40 39 39 39 41 41 41 42 41 40 41 40 43 42 44 41 42 42 41 43 45 46 47 46 46 47 47 50 52 51 50 50 49 52 54 55 55 54 53 53 52 51 52 54 54 54 53
56 56 56 56 56 56 56 56 56 56 56 56 55 55 55 56 56 57 57 58 60 63 63 62 61 56 52 26 31 41 41 35 36 36 42 40 41 41 42 41 41 41 39 38 40 43 43 43 43 41 41 38 41 40 42 45 46 46 46 42 42 44 44 45 45 45 45 45 49 49 40 45 48 51 54 54 55 55 54 53 53 52 52 52 53 53 54 53
56 56 56 56 56 56 56 56 56 56 55 55 55 54 55 55 56 56 58 58 62 63 63 61 59 56 46 32 29 30 29 36 38 40 40 41 39 40 41 42 41 41 42 40 43 43 44 45 44 44 45 41 42 46 46 47 49 41 46 46 40 38 39 43 44 44 43 46 48 47 38 41 47 52 54 54 54 54 52 51 52 53 53 52 53 53 52 54
56 55 56 55 56 56 56 56 56 55 55 55 54 54 54 55 56 57 58 59 60 61 61 60 58 49 37 31 35 35 62 34 32 35 40 36 38 38 39 41 40 41 41 40 42 47 46 46 48 44 44 46 45 47 44 46 46 48 39 35 42 36 37 42 44 43 43 44 46 45 39 42 47 51 54 53 54 54 52 51 51 52 52 52 51 51 52 53
56 55 55 55 55 55 55 55 55 54 54 54 54 53 54 55 56 58 58 59 60 61 60 55 55 46 33 27 30 50 33 32 30 33 38 36 37 38 38 40 42 41 41 40 42 45 45 46 46 45 46 46 46 43 42 42 41 43 40 39 39 37 37 38 41 41 42 41 43 43 39 45 46 51 53 52 53 53 52 51 51 52 52 52 50 51 52 53
56 56 55 55 55 55 55 55 54 54 53 53 52 52 53 54 56 57 57 58 60 57 52 38 52 47 31 29 30 27 27 29 33 34 35 36 38 39 39 41 40 39 41 42 42 43 44 42 46 46 48 46 48 43 39 38 37 39 42 39 43 36 36 36 39 42 40 41 41 42 43 44 46 50 52 52 53 53 51 51 51 51 51 52 50 52 53 53
56 55 55 54 54 54 55 55 55 54 52 52 52 52 51 53 56 54 46 54 53 54 51 44 37 31 25 35 28 24 27 30 31 32 33 35 39 40 39 39 40 39 44 43 42 49 45 45 48 42 46 47 47 42 37 33 38 38 39 36 36 41 36 35 37 39 40 40 41 42 42 44 45 50 51 51 52 52 51 51 51 51 51 52 51 52 53 53
55 55 55 54 54 54 55 55 55 53 52 52 53 54 54 54 55 44 40 38 38 29 29 36 33 24 23 30 32 30 26 27 33 33 32 35 40 40 40 41 40 39 44 47 40 46 45 45 44 41 39 42 42 40 37 38 44 42 44 39 40 37 38 35 36 38 40 40 40 40 40 43 45 48 50 51 51 51 51 51 51 51 51 52 52 52 53 53
55 55 55 54 54 54 54 54 54 52 51 50 49 50 43 37 38 28 36 37 24 20 19 26 32 29 28 25 25 28 29 31 29 31 32 33 36 37 38 39 41 42 43 41 45 45 46 41 37 36 39 43 43 43 43 45 45 45 46 41 39 38 37 35 34 36 40 41 40 39 41 43 44 46 48 49 50 50 50 49 50 51 51 51 52 52 52 53
55 55 55 55 54 53 53 53 52 51 51 50 50 42 32 35 36 35 34 34 35 35 30 28 22 21 20 22 23 27 25 26 28 29 30 38 34 36 37 38 43 41 40 44 41 48 46 40 39 40 39 41 45 44 46 46 45 46 43 42 40 39 36 34 32 36 41 39 39 41 42 42 43 45 47 48 48 48 48 49 50 50 51 51 51 51 53 53
55 55 55 55 54 53 52 52 51 51 51 51 52 42 33 34 35 36 35 33 35 36 35 34 34 31 29 26 25 23 25 24 25 25 31 31 32 31 35 37 42 37 43 45 42 42 42 35 36 40 40 41 45 43 43 41 45 45 42 40 37 33 31 32 36 38 38 41 38 40 40 41 42 44 45 46 47 47 47 48 49 50 50 51 50 51 52 53
55 55 54 54 53 52 51 51 50 50 52 48 45 38 33 34 39 41 39 37 36 37 36 35 32 32 31 31 25 21 20 20 21 25 30 31 33 32 34 35 40 43 46 41 39 38 35 41 40 39 39 39 42 40 44 45 44 40 39 35 32 37 36 32 34 35 38 41 36 39 39 40 41 42 43 44 45 45 46 47 48 50 50 50 50 51 52 52
54 54 54 54 53 52 51 50 50 49 45 48 48 35 36 36 43 41 38 37 33 31 31 32 32 31 30 28 23 20 20 21 22 23 34 28 29 31 33 35 41 40 38 38 38 35 34 37 39 37 38 40 42 44 40 40 36 40 42 40 39 37 38 38 34 37 37 36 39 37 37 36 38 39 39 40 42 42 44 45 47 49 49 49 52 52 52 52
54 54 54 54 53 51 50 50 48 45 48 48 37 41 40 40 45 43 44 41 32 30 29 25 27 25 24 27 27 21 22 22 24 26 29 25 25 25 26 36 36 35 36 39 40 39 36 36 36 36 39 40 41 41 41 40 37 40 41 41 37 38 36 38 40 37 36 35 39 39 31 31 38 38 36 38 37 39 43 43 44 47 48 49 51 52 52 52
54 54 53 53 52 51 49 48 44 46 48 43 41 43 42 42 45 47 44 36 28 31 25 18 26 20 25 21 24 23 18 18 19 25 25 23 31 26 27 28 34 34 35 38 39 37 36 34 35 35 38 38 41 40 40 37 36 38 36 44 45 45 42 40 42 37 32 31 36 38 29 28 36 37 38 42 39 36 40 43 42 44 46 49 50 52 52 52
54 54 53 52 52 51 40 42 45 46 39 39 43 44 44 43 47 44 31 29 26 26 22 23 20 20 22 23 23 20 16 17 21 21 25 30 25 32 23 24 27 32 35 37 35 33 37 32 31 36 38 41 40 35 36 39 38 36 40 45 43 42 43 45 42 39 35 43 40 42 38 31 31 35 42 45 40 38 39 40 41 43 45 49 50 51 52 52
54 53 53 52 51 51 46 47 46 41 40 41 45 46 46 47 49 44 29 13 13 31 27 22 19 24 24 23 19 20 21 21 18 18 22 24 24 23 23 21 23 26 29 29 28 30 35 38 31 34 41 37 35 37 35 40 39 36 38 42 41 41 43 42 40 40 43 36 32 36 43 33 31 37 42 44 36 37 39 42 41 42 43 50 50 51 52 52
53 53 53 52 51 50 50 50 48 45 48 46 46 48 48 51 50 35 27 18 23 26 22 15 20 22 21 21 20 19 19 20 17 18 23 23 24 20 20 19 21 23 27 28 29 29 31 33 30 34 38 33 33 35 35 37 38 36 39 40 41 43 45 44 41 38 38 35 28 35 40 31 32 38 39 41 39 38 41 41 43 43 41 48 50 52 52 52
53 53 52 51 50 52 49 52 49 50 51 46 47 50 53 51 37 24 17 14 33 28 21 19 17 15 19 15 16 18 16 17 18 22 23 20 21 22 22 22 21 23 25 29 27 29 27 41 40 34 30 30 32 32 36 37 37 38 39 39 38 42 41 43 41 39 35 28 30 37 39 34 27 35 37 35 38 40 42 43 45 46 44 47 51 52 52 52
52 52 52 51 48 47 48 42 38 44 40 46 50 52 49 43 34 24 13 22 30 24 20 19 14 19 15 14 19 15 17 16 15 19 16 19 17 21 21 17 24 28 31 32 30 24 30 27 25 24 35 29 31 34 36 37 37 38 40 37 34 34 36 36 35 33 27 25 31 36 39 38 27 31 38 41 45 45 43 40 40 44 42 46 50 52 52 52
52 51 51 50 50 50 47 37 33 42 44 49 53 52 38 19 26 16 19 30 27 29 18 15 16 15 14 15 15 13 12 15 16 13 13 16 21 19 20 22 30 28 27 29 26 30 28 28 27 27 38 32 35 39 33 34 37 37 36 34 31 28 29 25 29 27 26 27 30 37 39 33 32 34 38 41 43 43 45 43 43 43 43 44 48 51 52 51
51 51 51 50 50 49 49 45 45 45 48 52 53 48 35 24 14 25 27 26 29 26 20 18 14 14 13 13 12 13 16 12 14 12 13 18 16 17 19 17 25 26 24 28 30 28 27 31 23 27 26 33 33 32 29 30 32 35 33 34 28 24 23 22 24 27 27 31 36 36 38 32 35 37 40 40 41 43 43 44 45 45 44 43 45 50 50 49
51 50 49 49 49 49 49 53 49 51 52 53 48 40 31 20 21 47 20 25 32 29 22 19 14 14 13 11 11 12 13 12 13 12 11 16 16 23 17 17 21 16 32 31 24 29 24 23 27 24 25 24 30 31 29 31 34 35 37 33 30 29 27 21 25 22 25 27 32 37 31 27 30 32 40 40 41 40 43 42 43 45 46 43 44 47 47 48
50 49 49 49 51 51 50 50 51 54 52 50 43 36 24 22 32 34 34 32 24 23 20 24 12 11 12 12 13 12 12 15 13 12 10 11 17 18 20 16 18 18 29 22 25 28 25 27 25 24 22 21 20 24 29 30 30 32 38 31 30 29 33 26 30 29 30 28 28 31 27 34 34 38 41 40 43 42 43 41 43 43 44 46 45 45 47 48
49 48 50 50 51 54 55 53 53 53 51 46 37 31 26 28 26 36 33 37 32 27 28 29 18 9 18 11 16 10 14 12 12 11 15 8 13 15 19 15 14 18 23 27 28 22 25 20 18 19 20 18 18 18 18 24 24 27 29 27 27 32 31 28 30 36 31 29 24 26 32 36 39 37 37 40 40 41 41 39 40 41 43 46 46 46 47 49
47 49 50 52 51 50 56 56 54 53 49 43 35 26 36 37 35 34 34 32 32 33 32 26 27 13 15 10 15 11 13 13 12 8 14 15 17 19 15 15 15 19 24 29 27 28 25 26 31 17 19 17 17 16 21 22 25 28 28 32 30 32 32 31 27 27 26 23 23 31 31 32 31 29 42 38 39 40 40 37 39 42 45 44 48 48 48 50
49 50 52 52 52 52 53 55 53 49 47 40 32 42 45 40 39 35 35 31 32 33 32 31 31 16 22 17 14 12 12 8 17 12 14 17 16 21 11 15 19 16 18 24 21 26 27 21 21 19 17 20 21 21 21 28 27 25 23 24 25 25 25 31 29 24 20 20 20 27 31 31 32 32 36 35 37 38 38 38 41 43 43 42 45 48 49 51
51 51 49 48 51 53 53 52 49 46 41 35 37 30 36 38 38 33 32 31 31 30 31 30 30 28 25 20 19 14 9 13 16 14 11 18 10 17 11 13 18 18 16 17 19 29 33 20 24 24 20 22 24 22 21 26 24 25 25 26 30 33 32 26 28 29 26 22 25 25 29 26 36 33 34 33 37 38 37 38 40 42 42 42 42 45 48 50
49 46 45 51 48 49 50 49 48 44 41 31 37 37 37 34 32 32 31 30 31 31 34 34 27 28 32 22 24 24 19 11 13 16 16 24 13 21 14 18 15 19 14 17 18 29 22 31 17 24 28 20 19 26 27 23 19 26 26 25 27 33 34 28 34 25 28 24 25 25 22 27 32 40 35 34 36 38 37 38 40 41 43 43 43 47 48 49
50 48 46 51 50 49 48 47 41 40 40 42 42 38 33 33 32 30 30 30 29 29 27 26 29 24 27 27 26 26 23 15 11 16 12 14 17 15 23 16 17 14 23 24 26 31 24 26 19 28 22 26 26 26 19 18 14 20 27 24 26 27 24 22 20 31 30 28 23 26 22 30 32 36 37 34 35 37 38 38 40 40 42 44 44 47 49 49
48 42 42 48 49 48 48 41 42 44 39 36 35 37 34 43 30 29 29 29 29 26 25 26 26 24 28 29 27 27 27 24 15 14 16 11 15 24 20 19 18 19 24 23 25 30 29 32 28 15 23 24 23 23 19 14 15 16 21 27 31 32 28 27 22 22 29 29 30 29 25 26 33 33 38 36 36 38 38 38 38 41 42 44 50 50 50 50
50 44 46 48 49 50 45 41 43 40 40 38 36 34 33 32 30 29 28 28 27 26 26 27 27 27 29 28 30 26 25 26 23 19 17 17 17 18 17 16 18 24 29 31 28 29 58 28 24 28 29 28 27 26 29 26 18 17 19 21 22 23 27 30 29 29 26 28 24 26 25 29 37 41 38 37 39 39 41 41 45 48 49 51 52 51 50 51
49 48 47 48 51 48 42 34 33 34 39 39 40 36 36 36 35 35 34 32 31 28 31 28 24 23 28 27 27 25 25 23 26 21 21 24 19 23 20 17 19 24 30 30 29 37 23 31 22 26 28 30 29 32 31 33 28 30 25 30 19 22 28 35 33 33 26 29 28 28 23 27 37 38 37 36 38 40 42 44 45 46 49 50 51 51 51 52
48 50 49 47 49 46 40 42 39 37 40 42 41 38 37 38 37 36 37 36 36 30 29 29 26 25 21 25 28 25 25 22 29 25 24 24 20 25 29 30 32 34 40 40 54 32 32 33 32 25 20 18 16 19 21 21 26 31 32 23 22 25 27 26 21 27 24 28 32 28 26 34 37 37 37 38 39 42 45 46 47 46 49 51 52 53 54 53
48 39 42 43 48 46 45 46 43 42 41 41 38 38 40 38 36 37 38 36 36 28 26 26 24 25 23 24 29 26 26 25 24 26 21 22 23 24 28 31 30 34 53 61 52 41 35 38 35 30 28 27 28 29 32 33 28 21 22 26 23 24 27 33 31 28 26 27 28 30 30 31 33 36 37 39 40 42 43 46 46 47 51 52 53 54 54 54
48 43 39 37 41 42 44 43 43 42 38 42 32 41 39 41 38 33 37 35 28 33 28 28 25 28 31 29 33 29 27 28 25 27 27 24 25 31 32 31 37 49 61 50 46 37 35 24 31 34 31 27 27 30 25 28 24 21 22 24 23 21 29 29 26 24 31 28 24 31 37 33 33 36 37 39 41 42 44 46 47 50 52 53 54 55 59 56
40 43 46 48 41 34 36 37 44 44 43 43 41 43 39 37 36 37 35 35 32 31 30 28 35 31 29 27 32 28 31 32 35 29 27 24 25 31 32 34 38 56 43 33 46 36 33 21 27 34 33 31 29 28 27 24 24 23 21 29 25 29 34 30 32 34 33 28 27 33 37 33 34 36 38 39 41 41 43 46 48 49 51 52 54 55 55 55
47 47 46 48 41 44 44 43 45 45 43 44 42 45 41 39 37 35 36 34 33 34 24 22 29 27 23 26 30 33 37 27 27 37 34 35 30 33 32 31 28 32 34 40 42 44 33 28 34 33 34 35 31 28 26 24 24 25 26 28 27 23 28 35 35 33 30 32 34 37 37 34 35 36 36 38 41 41 43 46 48 49 50 52 52 53 53 54
44 45 44 45 47 45 45 45 45 45 42 43 38 42 40 40 38 36 34 36 35 33 29 30 29 27 23 21 26 29 36 38 35 32 40 35 31 38 35 38 29 31 34 36 40 38 34 28 40 38 31 33 33 29 26 28 25 28 29 28 28 29 27 32 37 39 37 36 38 38 36 35 38 39 39 44 43 44 46 46 47 49 50 51 50 50 51 53
47 48 47 45 43 43 45 44 41 42 37 41 39 42 44 40 39 37 35 33 33 40 35 38 38 40 38 37 38 32 38 38 37 37 36 33 30 36 31 33 36 34 39 40 40 40 38 31 39 35 26 30 32 30 30 29 27 32 35 31 29 29 30 32 31 34 36 34 37 37 34 34 37 44 44 44 44 43 44 45 46 47 48 48 49 49 50 51
49 50 50 47 42 45 43 42 42 41 35 43 44 43 41 39 39 37 38 40 36 36 38 40 45 41 40 39 36 39 40 38 37 37 37 35 31 31 33 34 33 33 34 40 43 35 38 35 30 28 28 25 34 36 34 33 28 28 30 32 30 31 28 31 32 36 41 39 33 31 32 36 40 44 43 44 43 44 44 44 45 46 46 48 49 50 51 52